Main page
METAR-TAF:

METAR-TAF

Airports :

Dehradun Airport

Dehradun, India

latitude: 30-11-23N, longitude: 78-10-49E, elevation: 558 m

Current weather observation

The report was made 54 minutes ago, at 04:00 UTC
Wind 3 kt from the North/Northwest
Temperature 17°C
Humidity 68%
Pressure 1018 hPa
Visibility: 5000 m
haze

METAR: VIDN 210400Z 34003KT 5000 HZ NSC 17/11 Q1018

Time: 10:24 (04:54 UTC)


TAF: missing

Weather observations and forecasts of more than 4000 airports (METAR and TAF reports).

The available stations are represented by yellow and red dots on the map.

Hover mouse over dot to see the name of the station.

Then click to see weather observations and forecasts.

To change the map : click on the green buttons with a black cross to zoom in, on the green button with a dash to zoom out, or on the green arrows for adjacent maps.


METAR-TAF: